SHIYAN-12 02 (SY-12 02)

Last updated on Sun Dec 07 2025 00:02:50 GMT+0000 (Coordinated Universal Time)

1 50322U 21129B 25340.70808514 -.00000142 00000+0 00000+0 0 9990 2 50322 3.1777 82.5968 0004212 186.3774 147.6190 1.00068622 14561
UTC large
Height (km)
Speed (km/s)
/
Latitude / Longitude
Inclination (degrees)
Orbital Period (minutes)
Azimuth
Elevation
Range (km)
Doppler Factor

Next 0 passes for location: London (51.5072 / 0.1276)

Sorry there are no passes over London.